| time (UTC) | temp F | wind direction | speed knots | gust knots | rain 1hr in | rain 24hr in | rain mn in | humidity % | barometer mb |
| 20260902021532 | 61 | 279 | 3.5 | 11.3 | 0.00 | 0.00 | 0.00 | 64 | 1012.5 |
| 20260902013032 | 64 | 277 | 6.1 | 13.0 | 0.00 | 0.00 | 0.00 | 60 | 1012.1 |
| 20260902011530 | 65 | 282 | 7.8 | 20.9 | 0.00 | 0.00 | 0.00 | 59 | 1011.9 |
| 20260902010030 | 66 | 292 | 7.0 | 15.6 | 0.00 | 0.00 | 0.00 | 59 | 1011.9 |
| 20260902003029 | 66 | 295 | 7.0 | 18.2 | 0.00 | 0.00 | 0.00 | 59 | 1011.5 |
| 20260902000108 | 67 | 276 | 6.1 | 14.8 | 0.00 | 0.00 | 0.00 | 60 | 1011.4 |
| 20260901234602 | 66 | 288 | 6.1 | 14.8 | 0.00 | 0.00 | 0.00 | 59 | 1011.4 |
| 20260901233031 | 67 | 317 | 6.1 | 17.4 | 0.00 | 0.00 | 0.00 | 57 | 1011.3 |
| 20260901230030 | 69 | 314 | 8.7 | 18.2 | 0.00 | 0.00 | 0.00 | 56 | 1011.1 |
| 20260901223107 | 68 | 303 | 9.6 | 22.6 | 0.00 | 0.00 | 0.00 | 56 | 1010.9 |
| 20260901221530 | 70 | 286 | 9.6 | 21.7 | 0.00 | 0.00 | 0.00 | 56 | 1010.8 |
| 20260901220030 | 69 | 300 | 7.8 | 18.2 | 0.00 | 0.00 | 0.00 | 56 | 1010.6 |
| 20260901214532 | 69 | 305 | 8.7 | 20.9 | 0.00 | 0.00 | 0.00 | 57 | 1010.4 |
| 20260901213105 | 69 | 315 | 7.8 | 16.5 | 0.00 | 0.00 | 0.00 | 57 | 1010.6 |
| 20260901211531 | 68 | 301 | 8.7 | 20.9 | 0.00 | 0.00 | 0.00 | 57 | 1010.7 |
| 20260901210031 | 69 | 291 | 10.4 | 19.1 | 0.00 | 0.00 | 0.00 | 56 | 1010.8 |
| 20260901203031 | 69 | 294 | 7.8 | 19.1 | 0.00 | 0.00 | 0.00 | 54 | 1011.1 |
| 20260901201643 | 69 | 300 | 7.8 | 19.1 | 0.00 | 0.00 | 0.00 | 53 | 1011.0 |
| 20260901194534 | 69 | 295 | 7.0 | 17.4 | 0.00 | 0.00 | 0.00 | 53 | 1011.4 |
| 20260901193028 | 70 | 292 | 7.0 | 16.5 | 0.00 | 0.00 | 0.00 | 52 | 1011.7 |
| 20260901184607 | 72 | 300 | 5.2 | 14.8 | 0.00 | 0.00 | 0.00 | 54 | 1012.0 |
| 20260901183107 | 71 | 235 | 2.6 | 9.6 | 0.00 | 0.00 | 0.00 | 56 | 1012.1 |
| 20260901180030 | 69 | 251 | 1.7 | 5.2 | 0.00 | 0.00 | 0.00 | 62 | 1012.4 |
| 20260901174606 | 66 | 245 | 2.6 | 6.1 | 0.00 | 0.00 | 0.00 | 67 | 1012.5 |
| 20260901173029 | 65 | 233 | 0.9 | 4.3 | 0.00 | 0.00 | 0.00 | 70 | 1012.6 |
| 20260901171604 | 63 | 248 | 0.9 | 4.3 | 0.00 | 0.00 | 0.00 | 74 | 1012.6 |
| 20260901170032 | 61 | 289 | 0.9 | 2.6 | 0.00 | 0.00 | 0.00 | 79 | 1012.6 |
| 20260901164530 | 60 | 174 | 0.0 | 1.7 | 0.00 | 0.00 | 0.00 | 83 | 1012.7 |
| 20260901163032 | 59 | 85 | 0.9 | 3.5 | 0.00 | 0.00 | 0.00 | 88 | 1012.6 |
| 20260901161528 | 55 | 155 | 0.0 | 1.7 | 0.00 | 0.00 | 0.00 | 92 | 1012.6 |
| 20260901160032 | 53 | 218 | 0.0 | 1.7 | 0.00 | 0.00 | 0.00 | 93 | 1012.5 |
| 20260901154530 | 52 | 203 | 0.0 | 1.7 | 0.00 | 0.00 | 0.00 | 93 | 1012.4 |
| 20260901153030 | 50 | 180 | 0.0 | 0.0 | 0.00 | 0.00 | 0.00 | 93 | 1012.4 |
| 20260901151531 | 49 | 180 | 0.0 | 1.7 | 0.00 | 0.00 | 0.00 | 93 | 1012.4 |
| 20260901150033 | 48 | 169 | 0.9 | 2.6 | 0.00 | 0.00 | 0.00 | 92 | 1012.2 |
| 20260901144606 | 48 | 157 | 0.9 | 1.7 | 0.00 | 0.00 | 0.00 | 92 | 1012.2 |
| 20260901143106 | 47 | 157 | 0.9 | 1.7 | 0.00 | 0.00 | 0.00 | 92 | 1012.1 |
| 20260901140033 | 46 | 135 | 0.0 | 2.6 | 0.00 | 0.00 | 0.00 | 91 | 1011.9 |
| 20260901134530 | 46 | 154 | 0.0 | 2.6 | 0.00 | 0.00 | 0.00 | 91 | 1011.7 |
| 20260901133029 | 46 | 157 | 0.0 | 4.3 | 0.00 | 0.00 | 0.00 | 91 | 1011.5 |
| 20260901131531 | 46 | 154 | 1.7 | 4.3 | 0.00 | 0.00 | 0.00 | 91 | 1011.5 |
| 20260901130030 | 46 | 150 | 0.0 | 3.5 | 0.00 | 0.00 | 0.00 | 90 | 1011.4 |
| 20260901124530 | 46 | 166 | 1.7 | 5.2 | 0.00 | 0.00 | 0.00 | 89 | 1011.3 |
| 20260901123030 | 46 | 141 | 0.9 | 3.5 | 0.00 | 0.00 | 0.00 | 89 | 1011.3 |
| 20260901121534 | 47 | 157 | 0.0 | 0.0 | 0.00 | 0.00 | 0.00 | 88 | 1011.3 |
| 20260901120030 | 47 | 158 | 0.9 | 4.3 | 0.00 | 0.00 | 0.00 | 88 | 1011.2 |
| 20260901114532 | 47 | 223 | 0.9 | 3.5 | 0.00 | 0.00 | 0.00 | 88 | 1011.3 |
| 20260901113108 | 47 | 168 | 1.7 | 4.3 | 0.00 | 0.00 | 0.00 | 88 | 1011.3 |
| 20260901111531 | 47 | 150 | 0.0 | 2.6 | 0.00 | 0.00 | 0.00 | 88 | 1011.2 |
| 20260901110042 | 47 | 145 | 0.0 | 3.5 | 0.00 | 0.00 | 0.00 | 88 | 1011.3 |
| 20260901104609 | 47 | 152 | 0.9 | 2.6 | 0.00 | 0.00 | 0.00 | 87 | 1011.3 |
| 20260901103031 | 47 | 151 | 0.9 | 2.6 | 0.00 | 0.00 | 0.00 | 86 | 1011.3 |
| 20260901101530 | 48 | 97 | 0.9 | 3.5 | 0.00 | 0.00 | 0.00 | 86 | 1011.3 |
| 20260901100104 | 49 | 150 | 0.9 | 3.5 | 0.00 | 0.00 | 0.00 | 86 | 1011.3 |
| 20260901094608 | 49 | 146 | 1.7 | 4.3 | 0.00 | 0.00 | 0.00 | 86 | 1011.3 |
| 20260901093029 | 48 | 165 | 1.7 | 4.3 | 0.00 | 0.00 | 0.00 | 86 | 1011.3 |
| 20260901091530 | 48 | 153 | 1.7 | 4.3 | 0.00 | 0.00 | 0.00 | 85 | 1011.3 |
| 20260901090032 | 49 | 134 | 0.0 | 2.6 | 0.00 | 0.00 | 0.00 | 85 | 1011.2 |
| 20260901084531 | 49 | 185 | 0.9 | 3.5 | 0.00 | 0.00 | 0.00 | 85 | 1011.2 |
| 20260901083030 | 49 | 199 | 1.7 | 4.3 | 0.00 | 0.00 | 0.00 | 85 | 1011.4 |
| 20260901080030 | 50 | 128 | 0.9 | 4.3 | 0.00 | 0.00 | 0.00 | 84 | 1011.3 |
| 20260901074604 | 50 | 196 | 0.9 | 3.5 | 0.00 | 0.00 | 0.00 | 83 | 1011.2 |
| 20260901073032 | 50 | 218 | 0.9 | 3.5 | 0.00 | 0.00 | 0.00 | 83 | 1011.2 |
| 20260901071529 | 49 | 160 | 0.9 | 4.3 | 0.00 | 0.00 | 0.00 | 83 | 1011.1 |
| 20260901070032 | 50 | 174 | 0.0 | 3.5 | 0.00 | 0.00 | 0.00 | 82 | 1011.1 |
| 20260901064531 | 51 | 157 | 1.7 | 2.6 | 0.00 | 0.00 | 0.00 | 81 | 1011.2 |
| 20260901063029 | 52 | 169 | 0.0 | 2.6 | 0.00 | 0.00 | 0.00 | 81 | 1011.4 |
| 20260901061532 | 52 | 165 | 0.9 | 2.6 | 0.00 | 0.00 | 0.00 | 82 | 1011.5 |
| 20260901060031 | 51 | 157 | 2.6 | 3.5 | 0.00 | 0.00 | 0.00 | 82 | 1011.6 |
| 20260901053031 | 51 | 157 | 0.9 | 4.3 | 0.00 | 0.00 | 0.00 | 82 | 1011.5 |
| 20260901051531 | 52 | 151 | 1.7 | 4.3 | 0.00 | 0.00 | 0.00 | 80 | 1011.5 |
| 20260901050032 | 53 | 199 | 0.9 | 3.5 | 0.00 | 0.00 | 0.00 | 77 | 1011.6 |
| 20260901041530 | 57 | 142 | 2.6 | 5.2 | 0.00 | 0.00 | 0.00 | 70 | 1011.3 |
| 20260901034532 | 59 | 155 | 3.5 | 6.1 | 0.00 | 0.00 | 0.00 | 70 | 1011.0 |
| 20260901033033 | 60 | 148 | 3.5 | 5.2 | 0.00 | 0.00 | 0.00 | 70 | 1010.9 |
| 20260901031531 | 61 | 133 | 0.9 | 3.5 | 0.00 | 0.00 | 0.00 | 67 | 1010.8 |
| 20260901030035 | 0 | 0 | 0.0 | 0.0 | 0.00 | 0.00 | 0.00 | 100 | |
| 20260901024532 | 64 | 162 | 2.6 | 4.3 | 0.00 | 0.00 | 0.00 | 62 | 1010.6 |
| 20260901023031 | 64 | 157 | 3.5 | 6.1 | 0.00 | 0.00 | 0.00 | 62 | 1010.4 |